{"data":{"norad_id":63776,"epoch":"2026-09-20T16:54:45.590112Z","epoch_age_seconds":132135,"freshness":"FRESH","line1":"1 63776U 25091B   26263.70469433  .00016327  00000+0  60121-3 0  9992","line2":"2 63776  42.9986  31.4971 0001529 271.2967  88.7709 15.27595570 78724","mean_motion":15.2759557,"eccentricity":0.0001529,"inclination_deg":42.9986,"raan_deg":31.4971,"arg_perigee_deg":271.2967,"mean_anomaly_deg":88.7709,"bstar":0.00060121,"rev_number":7872,"period_min":94.265787900917,"perigee_km":481.95340602876,"apogee_km":484.05154247998,"semimajor_km":6861.1394742544,"source":"CELESTRAK","updated_at":"2026-09-21T09:00:35.097903Z"}}